Regional Weather Roundup
Issued by NWS Northern Indiana

Home | Current Version | Previous Version | Graphics & Text | Print | Product List | Glossary On
Versions: 1 2 3 4 5 6 7 8 9 10 11 12 13 14 15 16 17 18 19 20 21 22 23 24 25 26 27 28 29 30 31 32 33 34 35 36 37 38 39 40 41 42 43 44 45 46 47 48 49 50
000
ASUS43 KIWX 211010
RWRIWX

KIWX WEATHER ROUNDUP
NATIONAL WEATHER SERVICE NORTHERN INDIANA
600 AM EDT THU SEP 21 2017

NOTE: "FAIR" INDICATES FEW OR NO CLOUDS BELOW 12,000 FEET WITH NO
SIGNIFICANT WEATHER AND/OR OBSTRUCTIONS TO VISIBILITY.

* THESE STATIONS ARE NOT UNDER NWS QUALITY CONTROL. THEY ALSO MAY NOT
  REPORT WEATHER SUCH AS PRECIPITATION OR FOG.

INZ001>027-211100-
NORTHERN INDIANA

CITY           SKY/WX    TMP DP  RH WIND       PRES   REMARKS
GARY*          MOCLDY    72  68  88 SW5       29.98R
VALPARAISO     CLOUDY    72  69  90 S6        30.00R
MICHIGAN CITY* CLOUDY    72  68  88 S5        29.99S
LAPORTE*       CLOUDY    67  66  96 CALM      30.01R FOG
KNOX*          PTCLDY    70  68  94 S5        30.00R
SOUTH BEND     CLEAR     68  67  96 CALM      30.01R
GOSHEN         CLEAR     71  66  84 SE6       30.02R HAZE
MONTICELLO*    CLOUDY    71  69  95 S5        30.01R
LOGANSPORT*    PTCLDY    66  64  94 S3        30.03R FOG
WARSAW*        PTCLDY    70  70 100 CALM      30.04R FOG
AUBURN*        CLOUDY    68  64  88 CALM      30.05R FOG
FORT WAYNE     CLOUDY    69  67  93 S5        30.05R
HUNTINGTON*    CLOUDY    69  68  96 CALM      30.03R
PERU/GRISSOM   CLOUDY    70  70 100 S6        30.02R

$$
INZ028>050-211100-
CENTRAL INDIANA

CITY           SKY/WX    TMP DP  RH WIND       PRES   REMARKS
LAFAYETTE      PTCLDY    68  68 100 CALM      30.01R
KOKOMO*        CLOUDY    70  69  97 S6        30.05R
MUNCIE*        CLOUDY    73  68  84 S6        30.05S
INDIANAPOLIS   CLOUDY    71  69  93 SE3       30.05R

$$
MIZ043>046-050>051-056>058-064>065-071>073-077>080-211100-
SOUTHWEST LOWER MICHIGAN

CITY           SKY/WX    TMP DP  RH WIND       PRES   REMARKS
BATTLE CREEK   MOCLDY    70  68  93 S6        30.03R
BENTON HARBOR  CLOUDY    72  67  84 S6        29.98S
COLDWATER*     CLOUDY    70  70 100 CALM      30.04R
HILLSDALE*     MOCLDY    68  64  88 SE3       30.05R FOG
HOLLAND        CLOUDY    70  67  90 SE7       29.97S
GRAND RAPIDS   CLOUDY    69  67  93 SE6       29.98F
KALAMAZOO      PTCLDY    71  66  84 S5        30.02R
STURGIS*       CLOUDY    70  68  95 S3        30.02R
THREE RIVERS*  FAIR      72  69  90 S5        30.03R

$$
OHZ001>008-015>018-024>025-211100-
NORTHWEST OHIO

CITY           SKY/WX    TMP DP  RH WIND       PRES   REMARKS
WAUSEON*       MOCLDY    66  64  94 CALM      30.06R FOG
DEFIANCE       MOCLDY    68  65  90 CALM      30.05R
FINDLAY        CLOUDY    69  64  84 SE5       30.06R
TOLEDO EXPRESS PTCLDY    65  65 100 CALM      30.05R
TOLEDO METCALF MOCLDY    68  66  93 S3        30.07R
LIMA           PTCLDY    68  67  96 S8        30.07S

$$
AND FOR LAKE MICHIGAN COASTAL AND OPEN LAKE BUOY OBSERVATIONS

STATION/POSITION TEMP    WIND        PRES    VSBY  WAVE
                 AIR SEA DIR/SP/G                  HT/PER
                 (F)     (DEG/KT/KT) (MB)    (MI)  (FT/S)
CALUMET HARBOR    73     140/  3/  3 1014.2R
MICHIGAN CITY     75     140/  8/ 10   N/A
BURNS HARBOR      75     190/  8/ 12 1015.2R
SAINT JOSEPH      74     150/  3/ 10 1015.6
SOUTH LAKE BUOY   70 69  210/  8/ 10 1014.1R         1/ 3
4 MI NW BRIDGMAN  72 69  190/  8/ 10 1014.9          1
MICHIGAN CITY     72 69  180/  4/  4   N/A           1

$$
&&




USA.gov is the U.S. government's official web portal to all federal, state and local government web resources and services.